{"data":{"norad_id":64020,"epoch":"2026-09-20T12:53:24.412704Z","epoch_age_seconds":140373,"freshness":"FRESH","line1":"1 64020U 25101AC  26263.53708811  .00012238  00000+0  45339-3 0  9995","line2":"2 64020  43.0042 337.6413 0000554 257.8469 102.2321 15.27588934 76858","mean_motion":15.27588934,"eccentricity":5.54e-5,"inclination_deg":43.0042,"raan_deg":337.6413,"arg_perigee_deg":257.8469,"mean_anomaly_deg":102.2321,"bstar":0.00045339,"rev_number":7685,"period_min":94.266197400982,"perigee_km":482.64223633235,"apogee_km":483.40245278773,"semimajor_km":6861.15934456,"source":"CELESTRAK","updated_at":"2026-09-21T09:00:35.185220Z"}}